Back to catalog

RSW-01

AliveSciencePO
NORAD 49112·PAYLOAD·🇨🇳 China

Launched Aug 24, 2021 from Jiuquan Satellite Launch Center

Loading…

Next Passes (next 24 hours)

TLE

FreshSource: Space-Track

Epoch: Sep 14, 2026, 14:43 UTC

1 49112U 21076A   26257.61379752 -.00000062  00000-0 -13556-3 0  9998
2 49112  86.4078 125.9011 0015130 168.2903 191.8597 13.42862809247882

Track RSW-01 in real time with AllMySat

Download on the App Store